Regional Weather Roundup
Issued by NWS Albany, NY

Home | Current Version | Previous Version | Text Only | Print | Product List | Glossary On
Versions: 1 2 3 4 5 6 7 8 9 10 11 12 13 14 15 16 17 18 19 20 21 22 23 24 25 26 27 28 29 30 31 32 33 34 35 36 37 38 39 40 41 42 43 44 45 46 47 48 49 50
000
ASUS41 KALY 060410
RWRALY

NEW YORK STATE HOURLY WEATHER ROUNDUP
NATIONAL WEATHER SERVICE ALBANY NY
1200 AM EDT MON JUL 06 2015

NOTE: "FAIR" INDICATES FEW OR NO CLOUDS BELOW 12,000 FEET WITH NO
SIGNIFICANT WEATHER AND/OR NO OBSTRUCTIONS TO VISIBILITY.

NYZ032-033-038>043-046>054-057>066-NYZ062>081-060500-
EAST


CITY           SKY/WX    TMP DP  RH WIND       PRES   REMARKS
ALBANY         PTCLDY    69  58  67 CALM      30.14S
GLENS FALLS    PTCLDY    65  60  84 NE3       30.13S
POUGHKEEPSIE   CLEAR     66  62  87 CALM      30.14R
NEWBURGH       CLEAR     68  64  88 CALM      30.17R
MONTGOMERY     FAIR      64  63  96 CALM      30.15R
WHITE PLAINS   PTCLDY    66  63  90 CALM      30.15S
ISLIP          MOCLDY    69  64  84 SW5       30.14S
NEW YORK CITY  PTCLDY    76  65  68 S5        30.14R
CENTRAL PARK   CLEAR     74  64  71 CALM      30.17S
$$

NYZ005>009-017-018-044>046-055-056-060500-
CENTRAL


CITY           SKY/WX    TMP DP  RH WIND       PRES   REMARKS
FULTON         CLEAR     60  58  92 CALM      30.14S FOG
SYRACUSE       PTCLDY    63  59  87 E5        30.14S
ROME           CLEAR     60  58  92 CALM      30.16F
ELMIRA         FAIR      63  60  90 SW3       30.17R
BINGHAMTON     PTCLDY    68  53  58 CALM      30.19S
MONTICELLO     PTCLDY    61  57  88 CALM      30.20S
$$

NYZ026>034-041>043-060500-
NORTH


CITY           SKY/WX    TMP DP  RH WIND       PRES   REMARKS
WATERTOWN      CLEAR     59  56  89 SE3       30.13S
FORT DRUM      NOT AVBL
MASSENA        CLEAR     64  60  87 CALM      30.13S
SARANAC LAKE   CLEAR     51  50  96 CALM      30.18R
PLATTSBURGH    CLEAR     62  61  96 CALM      30.12R
$$

NYZ001>004-010>016-019>021-060500-
WEST


CITY           SKY/WX    TMP DP  RH WIND       PRES   REMARKS
NIAGARA FALLS  MOCLDY    66  59  78 CALM      30.10F
BUFFALO        MOCLDY    69  59  70 SE5       30.12F
DUNKIRK        PTCLDY    64  59  83 CALM      30.12S
JAMESTOWN      PTCLDY    64  57  77 E3        30.17S
WELLSVILLE     MOCLDY    65  58  78 SE3       30.22R
ROCHESTER      PTCLDY    70  61  73 S3        30.13S
PENN YAN       PTCLDY    64  60  87 SW3       30.16S
$$

             KEY
       WCI = WIND CHILL INDEX
       VSB = VISIBILITY
       HX  = HEAT INDEX
$$


USA.gov is the U.S. government's official web portal to all federal, state and local government web resources and services.